Hourly Weather Roundup
Issued by NWS Central Illinois

Home | Current Version | Previous Version | Text Only | Print | Product List | Glossary On
Versions: 1 2 3 4 5 6 7 8 9 10 11 12 13 14 15 16 17 18 19 20 21 22 23 24 25 26 27 28 29 30 31 32 33 34 35 36 37 38 39 40 41 42 43 44 45 46 47 48 49 50
000
NZUS43 KILX 202110
HWRILX

AREA WEATHER ROUNDUP
NATIONAL WEATHER SERVICE, LINCOLN IL
300 PM CST FRI JAN 20 2017


CITY           SKY/WX    TMP DP  RH WIND       PRES   REMARKS
BLOOMINGTON    FOG       47  47 100 S8        29.62R VSB 1/4
CHAMPAIGN      CLOUDY    51  48  89 S9        29.63R
DANVILLE       CLOUDY    49  49  97 S7        29.63R
DECATUR        CLOUDY    52  50  93 S13       29.61R
EFFINGHAM      CLOUDY    54  52  94 CALM      29.64S
FLORA          CLOUDY    58  53  84 S9        29.63S
GALESBURG      CLOUDY    45  44  99 CALM      29.59R
JACKSONVILLE   CLOUDY    49  48  93 S6        29.58R
LACON          CLOUDY    45  44  99 CALM      29.60R
LAWRENCEVILLE  CLOUDY    58  53  84 S12       29.66R
LITCHFIELD     CLOUDY    50  49  93 S7        29.59F
$$


CITY           SKY/WX    TMP DP  RH WIND       PRES   REMARKS
LINCOLN        CLOUDY    50  50 100 S3        29.61R FOG
MACOMB         CLOUDY    46  46 100 SE7       29.60S
MATTOON        CLOUDY    51  47  86 S6        29.62R
MT CARMEL AP   CLOUDY    58  52  80 S13       29.65S
OLNEY-NOBLE AP CLOUDY    55  55 100 S9        29.64S
PARIS          CLOUDY    51  49  91 S9        29.66R
PEORIA         CLOUDY    47  46  97 S8        29.61R
PONTIAC        CLOUDY    48  48 100 S7        29.62S
RANTOUL        CLOUDY    50  50  99 S7        29.63S FOG
SPRINGFIELD    CLOUDY    52  50  93 CALM      29.61R FOG
TAYLORVILLE    CLOUDY    51  47  89 S6        29.60S
$$

...REGIONAL REPORTS...


CITY           SKY/WX    TMP DP  RH WIND       PRES   REMARKS
CHICAGO O`HARE CLOUDY    41  39  93 SE3       29.62R FOG
KANKAKEE       CLOUDY    46  46  98 CALM      29.64R
MOLINE         CLOUDY    45  42  89 S7        29.59R
MOUNT STERLING CLOUDY    47  47 100 SE3       29.57S FOG
MOUNT VERNON   CLOUDY    57  53  86 S9        29.62F
PITTSFIELD     CLOUDY    50  49  97 E3        29.58S
QUINCY         CLOUDY    49  48  97 SE6       29.55F FOG
ROCKFORD       FOG       41  39  93 SE7       29.63R VSB 1
$$


CITY           SKY/WX    TMP DP  RH WIND       PRES   REMARKS
BURLINGTON     CLOUDY    44  44 100 E3        29.57S FOG
CEDAR RAPIDS   CLOUDY    40  39  97 S6        29.56R FOG
DES MOINES     CLOUDY    43  41  93 SE7       29.52F FOG
KIRKSVILLE     CLOUDY    47  46  97 E8        29.51F FOG
OTTUMWA        CLOUDY    43  41  93 E6        29.53F FOG
ST LOUIS       CLOUDY    54  47  77 VRB6      29.57F
$$


CITY           SKY/WX    TMP DP  RH WIND       PRES   REMARKS
TERRE HAUTE    CLOUDY    53  47  79 S5        29.65S
EVANSVILLE     CLOUDY    60  51  72 SW9       29.68R
INDIANAPOLIS   CLOUDY    53  47  79 SW14      29.67R
LAFAYETTE      CLOUDY    49  48  97 CALM      29.64S
MADISON        DRZL/FOG  37  37 100 E6        29.61S VSB 1/8 WCI  32
MILWAUKEE      FOG       38  37  97 E9        29.63S VSB 1/4 WCI  31
$$





USA.gov is the U.S. government's official web portal to all federal, state and local government web resources and services.